Showing default

SPARK 2, 41901

Orbit data source: Space-Track

SPARK 2, 41901 is a payload satellite owned by SECM (CN) in SSO that was launched on Wed, 21 Dec 2016 UTC via a CHANG ZHENG 2D launch vehicle from the Jiuquan Satellite Launch Center, China (JSC). Payload-class satellites include a variety of spacecraft equipped with specific instruments for various scientific and technological missions. These include communications satellites like Starlink; space stations such as the ISS; scientific satellites like the Hubble; Earth observation satellites from companies like Planet Labs, Umbra, and HawkEye 360; GPS; miniature CubeSats for education and research; and military/defense satellites.

Loading next visibility...
Identifier
41901, 2016-081D
Orbit
SSO
Country
Flag of CNCN / PRC
Related business
Manufacturer
SECM
Mission
Operational Civil Imaging
Bus & Motor
SPARK, Unknown motor
Mass
43 kg wet, 43 kg dry
Launch date (UTC)
2016-12-21 (9 years ago)
Launch vehicle
CHANG ZHENG 2D
Launch site
Jiuquan Satellite Launch Center, China (JSC)
Object type
Payload
Rocket body
Debris
Shape & HBR
Box + 2 Pan, 0.5 m
Radar Cross Section
0.388 m², Medium (>0.1 m² and < 1m²)

Expand to show TLE details & history
Last TLE update: 19 hours ago

TLE from 19 hours ago
0 SPARK 2
1 41901U 16081D   25259.48571043  .00000640  00000-0  14763-3 0  9990
2 41901  98.5205 236.6679 0026973  88.5220 271.9068 14.58600306464210
Epoch: 2025-09-16T11:39Z
TLE epoch observation values (Epoch: 2025-09-16T11:39:25.381Z)
Latitude
0.00001°
Longitude
66.13682°
Altitude
700.087 km
Speed
7.506 km/s
True Right ascension
15h 46m 40s
True Declination
0° 00' 00"
Sunlit
Object was in daylight at epoch
Visualization orbit readout
Latitude
Unknown
Longitude
Unknown
Altitude
Unknown
Speed
Unknown
Apparent Right ascension
Unknown
Apparent Declination
Unknown
Sunlit
N/A
Visualization observer readout
Local Sidereal Time
23:47:04
Azimuth
Unknown
Elevation
Unknown
Doppler factor
Unknown
Orbital elements
Apogee altitude
713.873 km
Perigee altitude
675.717 km
Semi-major axis
7,072.932 km
Eccentricity
0.0027
Inclination
98.5205°
RAAN
236.6679°
Arg. of periapsis
88.522°
True anomaly
271.59785°
Mean anomaly
271.9068°
Eccentric anomaly
271.75233°
Mean motion
3.64875 °/min
Orbital period
98.66 mins
BSTAR
0.00014763
Loading maneuver chart data...
Computing Atmospheric mass density...
Loading historical data...
Loading historical data...
Loading historical data...
Loading historical data...
Loading historical data...
Loading historical data...
Loading historical data...
Other satellites on launch #81 in the year 2016 (2016-12-21 UTC)

Documentation

Showing up to 5 results
|